Weather History for Van, Turkey

Change the Weather History Date:

Friday, May 17, 2013

  Actual Average Record
Temperature  
Mean Temperature 52 °F -  
Max Temperature 61 °F 70 °F 73 °F (2006)
Min Temperature 43 °F 47 °F 41 °F (2001)
Degree Days  
Heating Degree Days 13    
Growing Degree Days 2 (Base 50)    
Moisture  
Dew Point 44 °F    
Average Humidity 71    
Maximum Humidity 93    
Minimum Humidity 45    
Precipitation  
Precipitation 0.00 in 0.04 in - ()
Sea Level Pressure  
Sea Level Pressure 30.05 in    
Wind  
Wind Speed 5 mph ()    
Max Wind Speed 17 mph    
Max Gust Speed -    
Visibility 6.2 miles    
Events Rain    
Averages and records for this station are not official NWS values.
T = Trace of Precipitation, MM = Missing Value Source: Averaged Metar Reports

Daily Weather History Graph

Daily Weather History Graph

Search for Another Location

Airport:

Trip Planner

Search our weather history database for the weather conditions in past years. The results will help you decide how hot, cold, wet, or windy it might be!

Date:

Astronomy

May. 17, 2013 Rise Set
Actual Time 4:53 AM EEST 7:12 PM EEST
Civil Twilight 4:23 AM EEST 7:42 PM EEST
Nautical Twilight 3:46 AM EEST 8:19 PM EEST
Astronomical Twilight 3:06 AM EEST 9:00 PM EEST
Moon 11:02 AM EEST (5/17) No Moon Set
Length of Visible Light 15h 19m
Length of Day
14h 19m
Waxing Crescent, 42% of the Moon is Illuminated
May 17
Waxing Crescent
May 18
First Quarter
May 25
Full
May 31
Last Quarter
Jun 8
New

Hourly Weather History & Observations

Time (EEST) Temp. Windchill Dew Point Humidity Pressure Visibility Wind Dir Wind Speed Gust Speed Precip Events Conditions
12:50 AM 46.4 °F - 44.6 °F 93% 30.01 in 6.2 mi Variable 1.2 mph - N/A   Mostly Cloudy
1:50 AM 48.2 °F - 41.0 °F 76% 30.01 in 6.2 mi SW 8.1 mph - N/A   Mostly Cloudy
2:50 AM 48.2 °F - 42.8 °F 82% 30.01 in 6.2 mi East 4.6 mph - N/A   Mostly Cloudy
3:00 AM 48 °F - 42 °F 73%  in 6 mi East 4.6 mph - -   Partly Cloudy
3:10 AM 48.2 °F - 42.8 °F 82% 30.01 in 6.2 mi East 4.6 mph - N/A Rain Light Rain Showers
3:20 AM 46.4 °F 42.4 °F 42.8 °F 87% 30.01 in 6.2 mi East 8.1 mph - N/A   Mostly Cloudy
3:34 AM 46.4 °F 42.4 °F 42.8 °F 87% 30.01 in 6.2 mi East 8.1 mph - N/A   Mostly Cloudy
3:50 AM 48.2 °F - 42.8 °F 82% 30.01 in 6.2 mi SSW 3.5 mph - N/A   Mostly Cloudy
4:50 AM 48.2 °F - 44.6 °F 87% 30.01 in 6.2 mi South 4.6 mph - N/A   Mostly Cloudy
5:11 AM 48.2 °F - 42.8 °F 82% 30.01 in 6.2 mi South 6.9 mph - N/A Rain Light Rain Showers
5:50 AM 46.4 °F 44.3 °F 42.8 °F 87% 30.04 in 6.2 mi South 4.6 mph - N/A Rain Light Rain Showers
6:50 AM 48.2 °F - 44.6 °F 87% 30.04 in 6.2 mi Variable 2.3 mph - N/A Rain Light Rain Showers
7:50 AM 50.0 °F - 44.6 °F 82% 30.06 in 6.2 mi WSW 1.2 mph - N/A Rain Light Rain Showers
8:18 AM 50.0 °F - 44.6 °F 82% 30.06 in 6.2 mi Variable 2.3 mph - N/A   Mostly Cloudy
8:50 AM 50.0 °F - 44.6 °F 82% 30.06 in 6.2 mi SSW 4.6 mph - N/A   Mostly Cloudy
9:00 AM 51 °F - 45 °F 72%  in 6 mi SW 4.6 mph - - Rain Light Rain Showers
9:50 AM 51.8 °F - 41.0 °F 67% 30.06 in 6.2 mi Variable 5.8 mph - N/A   Mostly Cloudy
10:50 AM 55.4 °F - 44.6 °F 67% 30.06 in 6.2 mi West 6.9 mph - N/A   Mostly Cloudy
11:50 AM 55.4 °F - 42.8 °F 63% 30.09 in 6.2 mi West 8.1 mph - N/A   Mostly Cloudy
12:50 PM 57.2 °F - 46.4 °F 67% 30.09 in 6.2 mi West 9.2 mph - N/A   Mostly Cloudy
1:50 PM 59.0 °F - 46.4 °F 63% 30.09 in 6.2 mi West 10.4 mph - N/A   Mostly Cloudy
2:50 PM 59.0 °F - 46.4 °F 63% 30.06 in 6.2 mi West 8.1 mph - N/A   Mostly Cloudy
3:00 PM 59 °F - 44 °F 46%  in 6 mi West 8.1 mph - -   Partly Cloudy
3:50 PM 60.8 °F - 44.6 °F 55% 30.06 in 6.2 mi Variable 4.6 mph - N/A   Mostly Cloudy
4:50 PM 60.8 °F - 42.8 °F 52% 30.06 in 6.2 mi WSW 3.5 mph - N/A   Mostly Cloudy
5:50 PM 60.8 °F - 39.2 °F 45% 30.06 in 6.2 mi SW 3.5 mph - N/A   Mostly Cloudy
6:50 PM 59.0 °F - 39.2 °F 48% 30.06 in 6.2 mi Variable 1.2 mph - N/A   Mostly Cloudy
7:50 PM 57.2 °F - 44.6 °F 63% 30.09 in 6.2 mi WNW 17.3 mph - N/A   Mostly Cloudy
8:50 PM 55.4 °F - 42.8 °F 63% 30.09 in 6.2 mi South 3.5 mph - N/A   Scattered Clouds
9:00 PM 55 °F - 42 °F 52%  in 6 mi South 3.5 mph - -   Partly Cloudy
9:50 PM 53.6 °F - 46.4 °F 77% 30.09 in 6.2 mi Variable 1.2 mph - N/A   Scattered Clouds
10:50 PM 55.4 °F - 44.6 °F 67% 30.09 in 6.2 mi East 1.2 mph - N/A   Scattered Clouds
11:27 PM 53.6 °F - 46.4 °F 77% 30.09 in 6.2 mi Variable 2.3 mph - N/A Rain Light Rain Showers
11:50 PM 53.6 °F - 44.6 °F 72% 30.09 in 6.2 mi East 2.3 mph - N/A   Scattered Clouds